SAS4083 ENEV-ENGM

Flight info

Callsign SAS4083
Flight time 1h 25m
Altitude 38000
Route GEPTU DCT GUBAV DCT SOMUB DCT BELGU
Aircraft A320/M-SDE3FGHIRWY/LB1

Departure

Time 2026-05-06 14:53
Airport Harstad/Narvik Airport (ENEV)

Arrival

Time 2026-05-06 16:18
Airport Oslo-Gardermoen International Airport (ENGM)
Time Latitude Longitude Altitude Speed Heading
2026-05-06 14:34 68.48986 16.68705 74 ft 0 kts 358°
2026-05-06 14:45 68.48985 16.68705 74 ft 1 kts 358°
2026-05-06 14:45 68.48970 16.68707 74 ft 2 kts 358°
2026-05-06 14:45 68.48955 16.68709 74 ft 2 kts 358°
2026-05-06 14:46 68.48945 16.68710 74 ft 0 kts 358°
2026-05-06 14:47 68.48949 16.68708 74 ft 2 kts 348°
2026-05-06 14:48 68.48951 16.68651 74 ft 6 kts 226°
2026-05-06 14:48 68.48902 16.68559 74 ft 11 kts 248°
2026-05-06 14:48 68.48893 16.68305 74 ft 14 kts 275°
2026-05-06 14:48 68.48977 16.68192 74 ft 15 kts 358°
2026-05-06 14:49 68.49085 16.68182 74 ft 16 kts 358°
2026-05-06 14:49 68.49199 16.68170 74 ft 16 kts 358°
2026-05-06 14:49 68.49315 16.68157 74 ft 16 kts 358°
2026-05-06 14:49 68.49434 16.68145 74 ft 17 kts 358°
2026-05-06 14:50 68.49557 16.68129 73 ft 18 kts 358°
2026-05-06 14:50 68.49689 16.68113 71 ft 19 kts 358°
2026-05-06 14:50 68.49825 16.68098 71 ft 19 kts 358°
2026-05-06 14:50 68.49963 16.68084 70 ft 20 kts 358°
2026-05-06 14:51 68.50101 16.68070 70 ft 20 kts 358°
2026-05-06 14:51 68.50240 16.68054 70 ft 19 kts 358°
2026-05-06 14:51 68.50351 16.68012 71 ft 13 kts 328°
2026-05-06 14:51 68.50384 16.67778 72 ft 13 kts 266°
2026-05-06 14:52 68.50374 16.67685 74 ft 2 kts 207°
2026-05-06 14:52 68.50347 16.67681 74 ft 7 kts 177°
2026-05-06 14:52 68.50066 16.67708 71 ft 81 kts 178°
2026-05-06 14:52 68.49251 16.67801 75 ft 152 kts 178°
2026-05-06 14:53 68.48225 16.67937 542 ft 165 kts 177°
2026-05-06 14:53 68.47076 16.68076 1361 ft 162 kts 177°
2026-05-06 14:53 68.45911 16.68206 1812 ft 176 kts 178°
2026-05-06 14:53 68.44655 16.68347 2239 ft 192 kts 178°
2026-05-06 14:54 68.43319 16.67779 2604 ft 213 kts 208°
2026-05-06 14:54 68.42234 16.64840 3035 ft 232 kts 246°
2026-05-06 14:54 68.42030 16.60426 3558 ft 249 kts 282°
2026-05-06 14:54 68.42532 16.55819 4287 ft 259 kts 285°
2026-05-06 14:55 68.42584 16.50996 5123 ft 264 kts 258°
2026-05-06 14:55 68.42025 16.46334 6046 ft 266 kts 249°
2026-05-06 14:55 68.41335 16.41653 6911 ft 270 kts 249°
2026-05-06 14:55 68.40650 16.37002 7749 ft 273 kts 245°
2026-05-06 14:56 68.39677 16.32728 8583 ft 276 kts 230°
2026-05-06 14:56 68.38354 16.29128 9393 ft 279 kts 221°
2026-05-06 14:56 68.36911 16.25742 10160 ft 283 kts 220°
2026-05-06 14:56 68.35396 16.22248 10703 ft 295 kts 220°
2026-05-06 14:57 68.33863 16.18680 11321 ft 301 kts 221°
2026-05-06 14:57 68.32268 16.14930 12064 ft 304 kts 221°
2026-05-06 14:57 68.30663 16.11168 12757 ft 307 kts 220°
2026-05-06 14:57 68.28983 16.07601 13429 ft 310 kts 218°
2026-05-06 14:58 68.27256 16.04057 14107 ft 313 kts 218°
2026-05-06 14:58 68.25522 16.00510 14765 ft 316 kts 218°
2026-05-06 14:58 68.23738 15.96872 15418 ft 319 kts 218°
2026-05-06 14:58 68.21973 15.93277 16044 ft 321 kts 218°
2026-05-06 14:59 68.20171 15.89615 16663 ft 324 kts 218°
2026-05-06 14:59 68.18372 15.85967 17262 ft 327 kts 218°
2026-05-06 14:59 68.16543 15.82264 17854 ft 329 kts 218°
2026-05-06 14:59 68.14699 15.78540 18457 ft 331 kts 218°
2026-05-06 15:00 68.12843 15.74844 18999 ft 335 kts 216°
2026-05-06 15:00 68.10864 15.71494 19519 ft 339 kts 210°
2026-05-06 15:00 68.08753 15.68663 20028 ft 343 kts 205°
2026-05-06 15:00 68.06562 15.66119 20535 ft 346 kts 204°
2026-05-06 15:01 68.04308 15.63556 21033 ft 350 kts 204°
2026-05-06 15:01 68.02159 15.61117 21494 ft 353 kts 204°
2026-05-06 15:01 67.99995 15.58663 21946 ft 356 kts 204°
2026-05-06 15:01 67.97813 15.56185 22386 ft 359 kts 204°
2026-05-06 15:02 67.95454 15.53512 22850 ft 362 kts 204°
2026-05-06 15:02 67.93110 15.50856 23288 ft 365 kts 204°
2026-05-06 15:02 67.90765 15.48204 23696 ft 369 kts 204°
2026-05-06 15:02 67.88930 15.46135 24020 ft 372 kts 204°
2026-05-06 15:03 67.86560 15.43468 24438 ft 374 kts 204°
2026-05-06 15:03 67.84171 15.40785 24864 ft 377 kts 204°
2026-05-06 15:03 67.81731 15.38048 25292 ft 379 kts 204°
2026-05-06 15:03 67.79272 15.35520 25704 ft 381 kts 200°
2026-05-06 15:04 67.76736 15.33407 26110 ft 383 kts 196°
2026-05-06 15:04 67.74131 15.31451 26520 ft 385 kts 196°
2026-05-06 15:04 67.71542 15.29492 26911 ft 388 kts 196°
2026-05-06 15:04 67.68944 15.27527 27290 ft 390 kts 196°
2026-05-06 15:05 67.66331 15.25560 27672 ft 392 kts 196°
2026-05-06 15:05 67.63678 15.23565 28046 ft 394 kts 196°
2026-05-06 15:05 67.61018 15.21572 28409 ft 396 kts 197°
2026-05-06 15:05 67.58365 15.19591 28770 ft 398 kts 197°
2026-05-06 15:06 67.55685 15.17595 29133 ft 400 kts 197°
2026-05-06 15:06 67.52960 15.15568 29480 ft 402 kts 197°
2026-05-06 15:06 67.50263 15.13568 29812 ft 403 kts 197°
2026-05-06 15:06 67.47556 15.11564 30142 ft 405 kts 197°
2026-05-06 15:07 67.44835 15.09555 30459 ft 407 kts 197°
2026-05-06 15:07 67.42110 15.07549 30796 ft 408 kts 197°
2026-05-06 15:07 67.39349 15.05521 31120 ft 409 kts 197°
2026-05-06 15:07 67.36588 15.03498 31417 ft 411 kts 197°
2026-05-06 15:08 67.33831 15.01483 31709 ft 413 kts 197°
2026-05-06 15:08 67.31039 14.99445 31991 ft 414 kts 197°
2026-05-06 15:08 67.28248 14.97416 32268 ft 416 kts 197°
2026-05-06 15:08 67.25454 14.95388 32542 ft 418 kts 197°
2026-05-06 15:09 67.22595 14.93319 32815 ft 419 kts 197°
2026-05-06 15:09 67.19801 14.91300 33075 ft 421 kts 197°
2026-05-06 15:09 67.16936 14.89235 33324 ft 422 kts 197°
2026-05-06 15:09 67.14103 14.87200 33569 ft 424 kts 197°
2026-05-06 15:10 67.11255 14.85159 33825 ft 425 kts 197°
2026-05-06 15:10 67.08373 14.83098 34101 ft 425 kts 197°
2026-05-06 15:10 67.05547 14.81081 34417 ft 425 kts 197°
2026-05-06 15:10 67.02708 14.79061 34730 ft 424 kts 197°
2026-05-06 15:11 66.99860 14.77041 35028 ft 423 kts 197°
2026-05-06 15:11 66.97018 14.75028 35322 ft 422 kts 197°
2026-05-06 15:11 66.94170 14.73017 35599 ft 422 kts 197°
2026-05-06 15:11 66.91331 14.71017 35875 ft 421 kts 197°
2026-05-06 15:12 66.88481 14.69012 36140 ft 421 kts 197°
2026-05-06 15:12 66.85671 14.67041 36353 ft 421 kts 197°
2026-05-06 15:12 66.82812 14.65039 36532 ft 423 kts 197°
2026-05-06 15:12 66.79993 14.63072 36713 ft 423 kts 197°
2026-05-06 15:13 66.77148 14.61091 36894 ft 424 kts 197°
2026-05-06 15:13 66.74294 14.59107 37063 ft 425 kts 197°
2026-05-06 15:13 66.71396 14.57098 37224 ft 426 kts 197°
2026-05-06 15:13 66.68515 14.55106 37379 ft 427 kts 197°
2026-05-06 15:14 66.65679 14.53150 37526 ft 428 kts 197°
2026-05-06 15:14 66.62803 14.51171 37670 ft 429 kts 197°
2026-05-06 15:14 66.59896 14.49177 37812 ft 430 kts 197°
2026-05-06 15:15 66.54231 14.45306 37912 ft 431 kts 198°
2026-05-06 15:15 66.48456 14.41374 37920 ft 431 kts 198°
2026-05-06 15:16 66.42667 14.37452 37924 ft 431 kts 198°
2026-05-06 15:16 66.36903 14.33566 37926 ft 431 kts 197°
2026-05-06 15:17 66.31085 14.29660 37927 ft 431 kts 197°
2026-05-06 15:17 66.25279 14.25786 37926 ft 431 kts 197°
2026-05-06 15:18 66.19476 14.21930 37926 ft 430 kts 197°
2026-05-06 15:18 66.13706 14.18115 37926 ft 430 kts 197°
2026-05-06 15:19 66.07942 14.14322 37926 ft 430 kts 197°
2026-05-06 15:19 66.02138 14.10521 37925 ft 430 kts 197°
2026-05-06 15:20 65.96341 14.06743 37918 ft 430 kts 197°
2026-05-06 15:20 65.90521 14.02969 37910 ft 430 kts 197°
2026-05-06 15:21 65.84713 13.99222 37907 ft 430 kts 197°
2026-05-06 15:21 65.78951 13.95444 37909 ft 430 kts 198°
2026-05-06 15:22 65.73291 13.90532 37916 ft 428 kts 204°
2026-05-06 15:22 65.67761 13.85152 37922 ft 428 kts 203°
2026-05-06 15:23 65.62203 13.79833 37925 ft 428 kts 203°
2026-05-06 15:23 65.56651 13.74530 37926 ft 428 kts 203°
2026-05-06 15:24 65.51102 13.69249 37926 ft 428 kts 204°
2026-05-06 15:24 65.45556 13.63990 37926 ft 427 kts 204°
2026-05-06 15:25 65.40023 13.58768 37927 ft 427 kts 204°
2026-05-06 15:25 65.34454 13.53536 37926 ft 427 kts 204°
2026-05-06 15:26 65.28925 13.48363 37926 ft 427 kts 204°
2026-05-06 15:26 65.23360 13.43181 37927 ft 427 kts 204°
2026-05-06 15:27 65.17845 13.38067 37927 ft 426 kts 204°
2026-05-06 15:27 65.12305 13.32956 37927 ft 426 kts 203°
2026-05-06 15:28 65.06728 13.27832 37926 ft 426 kts 203°
2026-05-06 15:28 65.01208 13.22782 37926 ft 426 kts 203°
2026-05-06 15:29 64.95663 13.17734 37926 ft 425 kts 203°
2026-05-06 15:29 64.90115 13.12703 37929 ft 425 kts 203°
2026-05-06 15:30 64.84581 13.07709 37934 ft 425 kts 203°
2026-05-06 15:30 64.79030 13.02721 37939 ft 425 kts 203°
2026-05-06 15:31 64.73528 12.97797 37946 ft 425 kts 203°
2026-05-06 15:31 64.67960 12.92837 37958 ft 425 kts 203°
2026-05-06 15:32 64.59679 12.85504 37973 ft 424 kts 203°
2026-05-06 15:32 64.54140 12.80622 37978 ft 424 kts 203°
2026-05-06 15:33 64.48610 12.75771 37981 ft 424 kts 203°
2026-05-06 15:33 64.43078 12.70940 37981 ft 424 kts 203°
2026-05-06 15:34 64.37569 12.66151 37981 ft 423 kts 203°
2026-05-06 15:34 64.32027 12.61352 37981 ft 423 kts 203°
2026-05-06 15:35 64.26507 12.56592 37981 ft 423 kts 203°
2026-05-06 15:35 64.21008 12.51870 37981 ft 423 kts 203°
2026-05-06 15:36 64.15451 12.47120 37981 ft 423 kts 203°
2026-05-06 15:36 64.09956 12.42443 37981 ft 423 kts 203°
2026-05-06 15:37 64.04401 12.37737 37981 ft 423 kts 204°
2026-05-06 15:37 63.98903 12.33096 37982 ft 423 kts 202°
2026-05-06 15:38 63.93375 12.28450 37981 ft 422 kts 202°
2026-05-06 15:38 63.87876 12.23846 37981 ft 422 kts 202°
2026-05-06 15:39 63.82321 12.19216 37981 ft 422 kts 202°
2026-05-06 15:39 63.76820 12.14651 37981 ft 422 kts 202°
2026-05-06 15:40 63.71283 12.10076 37981 ft 422 kts 202°
2026-05-06 15:40 63.65759 12.05532 37981 ft 422 kts 202°
2026-05-06 15:41 63.60191 12.00970 37976 ft 422 kts 203°
2026-05-06 15:41 63.54677 11.96469 37964 ft 422 kts 202°
2026-05-06 15:42 63.49138 11.91971 37953 ft 422 kts 203°
2026-05-06 15:42 63.43604 11.87496 37949 ft 422 kts 203°
2026-05-06 15:43 63.38065 11.83036 37954 ft 421 kts 203°
2026-05-06 15:43 63.32462 11.79019 37961 ft 423 kts 198°
2026-05-06 15:44 63.26759 11.75587 37970 ft 422 kts 199°
2026-05-06 15:44 63.21310 11.72268 37976 ft 422 kts 199°
2026-05-06 15:45 63.15664 11.68860 37980 ft 421 kts 199°
2026-05-06 15:45 63.09994 11.65457 37981 ft 421 kts 199°
2026-05-06 15:46 63.04352 11.62091 37981 ft 420 kts 199°
2026-05-06 15:46 62.98714 11.58740 37980 ft 420 kts 199°
2026-05-06 15:47 62.93048 11.55387 37971 ft 419 kts 199°
2026-05-06 15:47 62.87432 11.52076 37956 ft 419 kts 199°
2026-05-06 15:48 62.81787 11.48762 37941 ft 419 kts 199°
2026-05-06 15:48 62.76183 11.45486 37932 ft 418 kts 199°
2026-05-06 15:49 62.70547 11.42202 37929 ft 418 kts 199°
2026-05-06 15:49 62.64930 11.38944 37928 ft 418 kts 199°
2026-05-06 15:50 62.59301 11.35693 37928 ft 418 kts 199°
2026-05-06 15:50 62.53681 11.32458 37928 ft 418 kts 198°
2026-05-06 15:51 62.48089 11.29251 37928 ft 418 kts 198°
2026-05-06 15:51 62.42471 11.26041 37928 ft 418 kts 198°
2026-05-06 15:52 62.36853 11.22845 37928 ft 418 kts 198°
2026-05-06 15:52 62.31197 11.19639 37928 ft 418 kts 198°
2026-05-06 15:53 62.25573 11.16463 37928 ft 418 kts 198°
2026-05-06 15:53 62.19955 11.13304 37928 ft 418 kts 198°
2026-05-06 15:54 62.14281 11.10125 37928 ft 418 kts 198°
2026-05-06 15:54 62.08670 11.06994 37928 ft 418 kts 198°
2026-05-06 15:55 62.03046 11.03868 37922 ft 416 kts 198°
2026-05-06 15:55 62.00277 11.02336 37707 ft 410 kts 198°
2026-05-06 15:55 61.97531 11.00826 37145 ft 408 kts 199°
2026-05-06 15:56 61.94786 10.99312 36485 ft 408 kts 199°
2026-05-06 15:56 61.92036 10.97794 35836 ft 408 kts 199°
2026-05-06 15:56 61.89575 10.96439 35251 ft 407 kts 199°
2026-05-06 15:56 61.87684 10.95400 34796 ft 407 kts 199°
2026-05-06 15:57 61.85931 10.94438 34364 ft 407 kts 199°
2026-05-06 15:57 61.83211 10.92948 33678 ft 407 kts 199°
2026-05-06 15:57 61.80446 10.91437 32978 ft 407 kts 199°
2026-05-06 15:57 61.77723 10.89954 32282 ft 407 kts 200°
2026-05-06 15:58 61.74997 10.88468 31572 ft 406 kts 200°
2026-05-06 15:58 61.72313 10.87009 30870 ft 405 kts 200°
2026-05-06 15:58 61.69600 10.85537 30148 ft 404 kts 200°
2026-05-06 15:58 61.66882 10.84065 29488 ft 400 kts 200°
2026-05-06 15:59 61.64206 10.82617 28881 ft 397 kts 200°
2026-05-06 15:59 61.61553 10.81183 28265 ft 393 kts 200°
2026-05-06 15:59 61.58931 10.79769 27640 ft 390 kts 200°
2026-05-06 15:59 61.56335 10.78372 27018 ft 388 kts 200°
2026-05-06 16:00 61.53731 10.76973 26392 ft 385 kts 200°
2026-05-06 16:00 61.51227 10.75630 25787 ft 382 kts 200°
2026-05-06 16:00 61.48703 10.74279 25177 ft 379 kts 201°
2026-05-06 16:00 61.46160 10.72920 24560 ft 377 kts 201°
2026-05-06 16:01 61.43623 10.71569 23949 ft 374 kts 201°
2026-05-06 16:01 61.41131 10.70240 23351 ft 371 kts 201°
2026-05-06 16:01 61.38636 10.68910 22735 ft 369 kts 200°
2026-05-06 16:01 61.36321 10.67678 22169 ft 367 kts 200°
2026-05-06 16:02 61.33843 10.66365 21576 ft 365 kts 200°
2026-05-06 16:02 61.31490 10.65121 21010 ft 364 kts 200°
2026-05-06 16:02 61.29059 10.63838 20445 ft 361 kts 200°
2026-05-06 16:02 61.26627 10.62558 19889 ft 359 kts 199°
2026-05-06 16:03 61.24539 10.61459 19401 ft 358 kts 199°
2026-05-06 16:03 61.21942 10.60509 18786 ft 363 kts 187°
2026-05-06 16:03 61.19402 10.61260 18209 ft 373 kts 168°
2026-05-06 16:03 61.16988 10.63180 17763 ft 371 kts 163°
2026-05-06 16:04 61.14663 10.65197 17265 ft 369 kts 162°
2026-05-06 16:04 61.12297 10.67118 16754 ft 365 kts 165°
2026-05-06 16:04 61.09962 10.68868 16272 ft 362 kts 165°
2026-05-06 16:04 61.07709 10.70536 15802 ft 359 kts 165°
2026-05-06 16:05 61.05418 10.72238 15320 ft 356 kts 165°
2026-05-06 16:05 61.03143 10.73937 14850 ft 354 kts 165°
2026-05-06 16:05 61.00873 10.75637 14374 ft 351 kts 164°
2026-05-06 16:05 60.98608 10.77336 13902 ft 348 kts 164°
2026-05-06 16:06 60.96379 10.79008 13438 ft 346 kts 163°
2026-05-06 16:06 60.94134 10.80693 12972 ft 343 kts 163°
2026-05-06 16:06 60.91891 10.82375 12501 ft 340 kts 163°
2026-05-06 16:06 60.89689 10.84024 12037 ft 338 kts 163°
2026-05-06 16:07 60.87483 10.85676 11671 ft 332 kts 163°
2026-05-06 16:07 60.85368 10.87265 11490 ft 322 kts 163°
2026-05-06 16:07 60.83306 10.88809 11274 ft 313 kts 162°
2026-05-06 16:07 60.81267 10.90331 11019 ft 306 kts 162°
2026-05-06 16:08 60.79298 10.91798 10769 ft 300 kts 162°
2026-05-06 16:08 60.77407 10.93204 10550 ft 293 kts 162°
2026-05-06 16:08 60.75534 10.94596 10367 ft 286 kts 162°
2026-05-06 16:08 60.73665 10.95980 10049 ft 284 kts 162°
2026-05-06 16:09 60.71825 10.97339 9704 ft 283 kts 162°
2026-05-06 16:09 60.69987 10.98697 9370 ft 281 kts 162°
2026-05-06 16:09 60.68157 11.00047 9026 ft 280 kts 162°
2026-05-06 16:09 60.66373 11.01362 8695 ft 279 kts 162°
2026-05-06 16:10 60.64537 11.02717 8362 ft 277 kts 162°
2026-05-06 16:10 60.62739 11.04042 8024 ft 276 kts 162°
2026-05-06 16:10 60.60924 11.05377 7682 ft 275 kts 162°
2026-05-06 16:10 60.59155 11.06678 7356 ft 274 kts 162°
2026-05-06 16:11 60.57354 11.08001 7031 ft 272 kts 162°
2026-05-06 16:11 60.55589 11.09293 6709 ft 271 kts 162°
2026-05-06 16:11 60.53816 11.10592 6384 ft 269 kts 162°
2026-05-06 16:11 60.52072 11.11867 6169 ft 263 kts 162°
2026-05-06 16:12 60.50371 11.13108 6015 ft 255 kts 162°
2026-05-06 16:12 60.48738 11.14301 5860 ft 248 kts 162°
2026-05-06 16:12 60.47129 11.15473 5715 ft 240 kts 162°
2026-05-06 16:12 60.45571 11.16609 5527 ft 236 kts 162°
2026-05-06 16:13 60.44053 11.17712 5245 ft 226 kts 162°
2026-05-06 16:13 60.42610 11.18761 4934 ft 217 kts 163°
2026-05-06 16:13 60.41226 11.19739 4631 ft 209 kts 168°
2026-05-06 16:13 60.39816 11.19817 4333 ft 200 kts 192°
2026-05-06 16:14 60.38491 11.19100 4074 ft 194 kts 199°
2026-05-06 16:14 60.37209 11.18235 3815 ft 195 kts 201°
2026-05-06 16:14 60.35926 11.17404 3567 ft 196 kts 199°
2026-05-06 16:14 60.34598 11.16606 3348 ft 195 kts 197°
2026-05-06 16:15 60.33332 11.15882 3146 ft 189 kts 198°
2026-05-06 16:15 60.32069 11.15167 2861 ft 188 kts 198°
2026-05-06 16:15 60.30828 11.14465 2574 ft 180 kts 199°
2026-05-06 16:15 60.29658 11.13799 2338 ft 169 kts 199°
2026-05-06 16:16 60.28551 11.13166 2097 ft 160 kts 199°
2026-05-06 16:16 60.27533 11.12579 1890 ft 146 kts 197°
2026-05-06 16:16 60.26604 11.12046 1683 ft 133 kts 198°
2026-05-06 16:16 60.25725 11.11540 1526 ft 131 kts 198°
2026-05-06 16:17 60.24865 11.11045 1367 ft 129 kts 197°
2026-05-06 16:17 60.24004 11.10548 1195 ft 128 kts 197°
2026-05-06 16:17 60.23152 11.10060 1025 ft 128 kts 197°
2026-05-06 16:17 60.22290 11.09563 869 ft 128 kts 197°
2026-05-06 16:18 60.21431 11.09068 713 ft 129 kts 198°
2026-05-06 16:18 60.20639 11.08605 690 ft 98 kts 196°
2026-05-06 16:18 60.20158 11.08333 690 ft 42 kts 195°
2026-05-06 16:18 60.19988 11.08292 690 ft 17 kts 172°
2026-05-06 16:19 60.19901 11.08392 690 ft 14 kts 124°
2026-05-06 16:19 60.19873 11.08580 690 ft 14 kts 104°
2026-05-06 16:19 60.19846 11.08771 690 ft 14 kts 106°
2026-05-06 16:19 60.19819 11.08963 690 ft 14 kts 106°
2026-05-06 16:20 60.19788 11.09179 690 ft 18 kts 106°
2026-05-06 16:20 60.19754 11.09418 690 ft 18 kts 106°
2026-05-06 16:20 60.19723 11.09629 690 ft 11 kts 104°
2026-05-06 16:20 60.19678 11.09737 690 ft 11 kts 187°
2026-05-06 16:21 60.19602 11.09691 690 ft 9 kts 195°
2026-05-06 16:21 60.19554 11.09665 690 ft 5 kts 195°
2026-05-06 16:21 60.19534 11.09653 690 ft 0 kts 195°